Location: Capvern
(43.1036°N, 0.3160°E)
Time: 23:34:33
(UTC+00:00)

Cosmos 2084 Rocket - Pass Details

Date: 16 October 2021
Orbit: 508 x 671 km, 62.8° (Epoch: 04 December)

Event Time Altitude Azimuth Distance (km) Brightness Sun altitude
Rises 17:55:59 0° 233° (SW) 2,608 7.9 -8.4°
Reaches altitude 10° 17:58:14 10° 240° (WSW) 1,721 7.0 -8.8°
Maximum altitude 18:01:53 42° 313° (NW) 738 4.4 -9.5°
Drops below altitude 10° 18:05:36 10° 25° (NNE) 1,746 5.6 -10.1°
Enters shadow 18:07:40 - 32° (NNE) 2,563 6.4 -10.5°
